Погода в Первоуральске

Россия / Свердловская область     56°54′21″N   59°56′35″E
темп.,
°C
ветер,
м/с
пор.,
м/с
влажн.,
%
обл.,
%
осадки,
мм/ч
давл.,
гПа
погр.,
м
17 мая, пн
пн1723:00+19юз210545 0.0 1017178
02:00+17зюз312602 0.0 1017246
05:00+15зюз2137040 0.0 1018286
08:00+21юз384891 0.0 1017300
11:00+27зюз61330100 0.1 10162423
14:00+29з713235 0.0 10153543
17:00+29з613285 0.0 10143572
20:00+15сз71681100 1.6 10191034
18 мая, вт
вт1823:00+15юз2791100 3.6 1016156
02:00+14з2792100 0.9 1015150
05:00+13з38950 0.9 1015181
08:00+18сз36720 0.0 1016415
11:00+21сз575015 0.0 10161794
14:00+20ссв775687 0.1 10171040
17:00+17ссв5763100 0.1 1019948
20:00+13св48747 0.0 1021767
19 мая, ср
ср1923:00+11св39712 0.0 1023431
02:00+8св27880 0.0 1025217
05:00+7св23910 0.0 102654
08:00+12всв35631 0.0 1026787
11:00+16всв34435 0.0 10261236
14:00+20всв333562 0.0 10251591
17:00+20всв223395 0.0 10241700
20:00+17всв224968 0.0 102433
20 мая, чт
чт2023:00+12юв115886 0.0 102510
02:00+10ююз22660 0.0 102510
05:00+9юз11720 0.0 102611
08:00+16з24515 0.0 1025320
11:00+21з23351 0.0 10241315
14:00+24з23270 0.0 10221749
17:00+25з22250 0.0 10211907
20:00+20з11430 0.0 102011
21 мая, пт
пт2123:00+15зюз11540 0.0 102111
02:00+13юз11600 0.0 102110
05:00+12зюз11620 0.0 102110
08:00+18юз12452 0.0 1021232
11:00+24ююз34283 0.0 10201601
14:00+26ююз342149 0.0 10192264
17:00+26юз452199 0.0 10172521
20:00+21зюз37395 0.0 1018163